weather.gov     
National Weather Service

Regional Weather Roundup
NWS Homepage
This page is being discontinued on March 12, 2014.
The same data is available at this site. Please update your bookmarks.
Thank you, and we apologize for the inconvenience.
Please send an email to SR-SRH.Webmaster@noaa.gov with any concerns.


Current Version
Previous Version:    01  02  03  04  05  06  07  08  09  10  11  12  13  14  15  16  17  18  19  20  21  22  23  24  25  26  
[Printable]
287
ASUS42 KILM 171910
RWRILM
RWRILM
REGIONAL HOURLY WEATHER ROUNDUP
NATIONAL WEATHER SERVICE WILMINGTON NC
200 PM EST WED DEC 17 2014

NOTE: "FAIR" INDICATES FEW OR NO CLOUDS BELOW 12,000 FEET WITH NO
SIGNIFICANT WEATHER AND/OR OBSTRUCTIONS TO VISIBILITY.

...............WFO WILMINGTON COUNTY WARNING AREA...............

......COASTAL NC AND SC COUNTIES......

CITY           SKY/WX    TMP DP  RH WIND       PRES   REMARKS
WILMINGTON     SUNNY     62  39  42 W9        30.04F
SOUTHPORT      SUNNY     60  44  54 SW6       30.06S
N MYRTLE BEACH SUNNY     63  39  41 VRB5      30.05F
MYRTLE BEACH   SUNNY     64  39  39 W8        30.07F

......INLAND NC AND SC COUNTIES.......

CITY           SKY/WX    TMP DP  RH WIND       PRES   REMARKS
LUMBERTON      MOSUNNY   61  40  45 W10       30.05F
ELIZABETHTOWN  MOSUNNY   60  40  47 NW6       30.04F
WHITEVILLE     MOSUNNY   61  39  45 CALM      30.05F
FLORENCE       SUNNY     61  38  42 W7        30.06F
DARLINGTON     SUNNY     61  39  44 W6        30.08F

....................REST OF NORTH CAROLINA......................

.........EASTERN NC.........

CITY           SKY/WX    TMP DP  RH WIND       PRES   REMARKS
CAPE HATTERAS  SUNNY     55  44  66 W5        30.01F
JACKSONVILLE   SUNNY     61  39  44 W6        30.04F
MOREHEAD CITY  SUNNY     61  40  45 N5        30.03F
KENANSVILLE    SUNNY     60  38  43 W9        30.05F
NEW BERN       SUNNY     62  41  46 W9        30.03F
ELIZABETH CITY SUNNY     62  41  46 W10       29.98F

.........CENTRAL NC.........

CITY           SKY/WX    TMP DP  RH WIND       PRES   REMARKS
RALEIGH DURHAM MOSUNNY   59  36  42 VRB5      30.04F
ROCKY MOUNT    SUNNY     58  38  47 W8        30.02F
ROANOKE RAPIDS NOT AVBL
FAYETTEVILLE   SUNNY     61  39  44 NW6       30.04F
HOFFMAN        SUNNY     59  38  45 W10       30.07F

.........WESTERN NC.........

CITY           SKY/WX    TMP DP  RH WIND       PRES   REMARKS
CHARLOTTE      MOSUNNY   59  33  37 VRB5      30.07F
GREENSBORO     PTSUNNY   57  33  40 NW12      30.04F
HICKORY        NOT AVBL
BOONE          NOT AVBL
ASHEVILLE      NOT AVBL

.....................REST OF SOUTH CAROLINA.....................

.........EASTERN SC.........

CITY           SKY/WX    TMP DP  RH WIND       PRES   REMARKS
CHARLESTON     PTSUNNY   64  41  42 VRB5      30.08F
BEAUFORT MCAS  MOSUNNY   63  40  42 SW6       30.09F
HILTON HEAD    SUNNY     57  45  62 CALM      30.11F

.........CENTRAL SC.........

CITY           SKY/WX    TMP DP  RH WIND       PRES   REMARKS
COLUMBIA       PTSUNNY   61  37  41 VRB6      30.08F
ORANGEBURG     SUNNY     61  38  42 VRB5      30.08F
SUMTER SHAW    SUNNY     61  38  43 VRB5      30.06F

.........WESTERN SC.........

CITY           SKY/WX    TMP DP  RH WIND       PRES   REMARKS
GREENVILLE     NOT AVBL
ROCK HILL      SUNNY     57  36  45 NW7       30.07F
ANDERSON       SUNNY     56  35  45 W7        30.09F
CLEMSON        NOT AVBL
GREENWOOD      SUNNY     58  37  45 SW9       30.10F


...................COASTAL AND OFFSHORE REPORTS..................

................LOCAL PIERS AND NC RESERVE................


STATION/POSITION TIME  SKY/WX   TEMP    WIND        PRES    VSBY
                                AIR SEA DIR/SP/G
                 (UTC)          (F)     (DEG/KT/KT) (MB)    (MI)
JOHNY MRCER PIER 1900            60 58  310/  4/  9 1016.6F
NC RESRV MASNBRO 1800            61     290/  2     1018.0F
OCEAN CREST PIER 1900            56 54  190/ 10/ 11 1016.9F
SPRINGMAID  PIER 1900            54 53  150/  8/  9 1017.8F


................COASTAL AND OFFSHORE BUOYS................


STATION/POSITION TIME  SKY/WX   TEMP    WIND        PRES    VSBY
                                AIR SEA DIR/SP/G
                 (UTC)          (F)     (DEG/KT/KT) (MB)    (MI)
DIMNDSHOAL 41025 1900            54                 1017.0S
WVE H/P(F/S)=  3/ 8

CAPE LOOKOUT     1800            58     290/  4/  5 1017.3F
ONSLOW BAY 41036 1900            56 61  300/  8/ 10 1017.9F
WVE H/P(F/S)=  3/ 7 WND WVE H/P(F/S)=  2/ 4 SWL H/P/D(F/S/D)=  3/180/ 7

5 WRITEBCH 41038 1800            58 55  220/  4/  4 1018.1F
MASONBORO  41110 1900               56                N/A
WVE H/P(F/S)=  2/ 6 WND WVE H/P(F/S)=  2/ 6

WILM HARBR 41108 1900               56                N/A
WVE H/P(F/S)=  2/ 6 WND WVE H/P(F/S)=  2/ 6

27WRITEBCH 41037 1800            52 62  320/ 10/ 12 1019.5F
FRYING PAN 41013 1900            56 67  310/  4/  6 1018.8F
WVE H/P(F/S)=  3/ 6 WND WVE H/P(F/S)=  2/ 4 SWL H/P/D(F/S/D)=  2/210/ 6

SUNST NRSH 41024 1800            58     190/  6/  6   N/A
CAPRS NRSH 41029 1800            58     180/  4/  6   N/A
EDISTO     41004 1900            60 73  250/  2/  4 1018.7F
WVE H/P(F/S)=  2/ 6 WND WVE H/P(F/S)=  2/ 4 SWL H/P/D(F/S/D)=  2/ 6



..........OFFSHORE BUOYS BEYOND 100 NM OFFSHORE...........
.....IN A TRIANGLE---HAT TO BERMUDA TO BAHAMAS TO HAT.....


STATION/POSITION TIME  SKY/WX   TEMP    WIND        PRES    VSBY
                                AIR SEA DIR/SP/G
                 (UTC)          (F)     (DEG/KT/KT) (MB)    (MI)
150E HAT   41001 NOT AVBL
W BERMUDA  41048 1753            72 73  290/ 14/ 17 1014.2
WVE H/P(F/S)=  8/ 7 WND WVE H/P(F/S)=  5/ 6 SWL H/P/D(F/S/D)=  5/230/ 7

ATLANTIC S 41049 1818            74 77  190/  4/  6 1017.7F
WVE H/P(F/S)=  5/10 WND WVE H/P(F/S)=  2/ 4 SWL H/P/D(F/S/D)=  5/ 30/10

E BAHAMAS  41046 1836            76 80   70/  2/  4 1018.0F
WVE H/P(F/S)=  4/ 9 SWL H/P/D(F/S/D)=  5/ 40/ 9

NE BAHAMAS 41047 1817            73 79  290/ 12/ 16 1018.7F
WVE H/P(F/S)=  4/10 WND WVE H/P(F/S)=  2/ 4 SWL H/P/D(F/S/D)=  3/ 70/10

120E CANVRL41010 1900            71 76  290/ 14/ 17 1018.9F
WVE H/P(F/S)=  4/ 6 WND WVE H/P(F/S)=  3/ 6 SWL H/P/D(F/S/D)=  2/ 60/10


END




U.S. Dept. of Commerce
NOAA National Weather Service
1325 East West Highway
Silver Spring, MD 20910
E-mail: w-nws.webmaster@noaa.gov
Page last modified: May 16, 2007
NATIONAL WEATHER SERVICE: for Safety, for Work, for Fun - FOR LIFE